H1 CPF 2 NER 2022 11 20 9 324 01 glonass127 H2 1106403 9127 37869 2022 11 20 0 0 0 2022 11 23 23 45 0 900 1 1 0 0 0 1 H9 10 0 59903 0.00000 0 -15140085.773 -19889774.850 5041683.706 10 0 59903 900.00000 0 -15494929.667 -20157981.640 1862378.124 10 0 59903 1800.00000 0 -15627526.447 -20088062.317 -1353164.186 10 0 59903 2700.00000 0 -15493352.175 -19712926.436 -4542345.267 10 0 59903 3600.00000 0 -15056934.299 -19075410.120 -7642992.943 10 0 59903 4500.00000 0 -14293583.039 -18226336.046 -10594587.598 10 0 59903 5400.00000 0 -13190680.349 -17222247.562 -13339461.785 10 0 59903 6300.00000 0 -11748468.683 -16122913.339 -15823947.344 10 0 59903 7200.00000 0 -9980303.201 -14988709.274 -17999445.465 10 0 59903 8100.00000 0 -7912354.102 -13877990.084 -19823396.791 10 0 59903 9000.00000 0 -5582769.597 -12844563.625 -21260130.792 10 0 59903 9900.00000 0 -3040333.528 -11935376.669 -22281576.281 10 0 59903 10800.00000 0 -342673.424 -11188511.602 -22867818.167 10 0 59903 11700.00000 0 2445905.717 -10631579.874 -23007488.966 10 0 59903 12600.00000 0 5256870.482 -10280580.683 -22697987.320 10 0 59903 13500.00000 0 8020087.553 -10139272.950 -21945519.603 10 0 59903 14400.00000 0 10666520.799 -10199086.303 -20764964.534 10 0 59903 15300.00000 0 13130883.373 -10439573.370 -19179564.544 10 0 59903 16200.00000 0 15354133.605 -10829382.340 -17220451.266 10 0 59903 17100.00000 0 17285710.631 -11327706.418 -14926015.914 10 0 59903 18000.00000 0 18885417.067 -11886146.558 -12341138.529 10 0 59903 18900.00000 0 20124871.619 -12450906.469 -9516292.765 10 0 59903 19800.00000 0 20988473.105 -12965225.155 -6506545.190 10 0 59903 20700.00000 0 21473838.230 -13371942.664 -3370470.152 10 0 59903 21600.00000 0 21591697.961 -13616089.721 -169002.395 10 0 59903 22500.00000 0 21365260.070 -13647391.576 3035749.426 10 0 59903 23400.00000 0 20829067.633 -13422580.722 6181704.838 10 0 59903 24300.00000 0 20027404.085 -12907421.824 9208006.043 10 0 59903 25200.00000 0 19012313.729 -12078364.747 12056182.298 10 0 59903 26100.00000 0 17841321.977 -10923757.575 14671262.660 10 0 59903 27000.00000 0 16574951.239 -9444569.947 17002817.173 10 0 59903 27900.00000 0 15274136.015 -7654597.315 19005908.292 10 0 59903 28800.00000 0 13997644.150 -5580138.044 20641936.212 10 0 59903 29700.00000 0 12799610.301 -3259156.526 21879363.971 10 0 59903 30600.00000 0 11727282.554 -739966.092 22694310.335 10 0 59903 31500.00000 0 10819074.186 1920515.212 23071000.631 10 0 59903 32400.00000 0 10102999.988 4658866.045 23002068.026 10 0 59903 33300.00000 0 9595560.995 7407536.143 22488699.949 10 0 59903 34200.00000 0 9301123.485 10097398.234 21540626.640 10 0 59903 35100.00000 0 9211818.177 12660374.858 20175951.189 10 0 59903 36000.00000 0 9307964.616 15032033.902 18420822.812 10 0 59903 36900.00000 0 9559004.410 17154047.259 16308957.641 10 0 59903 37800.00000 0 9924906.045 18976411.882 13881013.941 10 0 59903 38700.00000 0 10357984.342 20459341.401 11183831.296 10 0 59903 39600.00000 0 10805059.975 21574749.069 8269546.159 10 0 59903 40500.00000 0 11209869.613 22307259.107 5194598.833 10 0 59903 41400.00000 0 11515625.887 22654702.494 2018649.515 10 0 59903 42300.00000 0 11667619.103 22628074.464 -1196576.349 10 0 59903 43200.00000 0 11615749.835 22250953.570 -4388491.263 10 0 59903 44100.00000 0 11316883.517 21558405.023 -7494873.541 10 0 59903 45000.00000 0 10736924.894 20595413.270 -10455094.747 10 0 59903 45900.00000 0 9852521.529 19414909.304 -13211321.211 10 0 59903 46800.00000 0 8652321.024 18075476.035 -15709664.284 10 0 59903 47700.00000 0 7137725.570 16638829.384 -17901254.693 10 0 59903 48600.00000 0 5323109.011 15167182.757 -19743218.026 10 0 59903 49500.00000 0 3235484.803 13720607.845 -21199530.454 10 0 59903 50400.00000 0 913637.155 12354504.979 -22241736.379 10 0 59903 51300.00000 0 -1593249.161 11117291.421 -22849512.981 10 0 59903 52200.00000 0 -4227403.114 10048406.392 -23011069.978 10 0 59903 53100.00000 0 -6924649.376 9176717.729 -22723376.681 10 0 59903 54000.00000 0 -9616865.813 8519397.342 -21992212.216 10 0 59903 54900.00000 0 -12234612.709 8081312.192 -20832038.693 10 0 59903 55800.00000 0 -14709822.713 7854955.042 -19265700.852 10 0 59903 56700.00000 0 -16978438.351 7820915.864 -17323959.414 10 0 59903 57600.00000 0 -18982886.550 7948871.510 -15044868.726 10 0 59903 58500.00000 0 -20674286.954 8199049.188 -12473012.538 10 0 59903 59400.00000 0 -22014302.649 8524099.181 -9658614.435 10 0 59903 60300.00000 0 -22976557.499 8871295.183 -6656541.834 10 0 59903 61200.00000 0 -23547562.962 9184967.196 -3525224.435 10 0 59903 62100.00000 0 -23727118.291 9409062.622 -325509.352 10 0 59903 63000.00000 0 -23528170.320 9489726.491 2880524.049 10 0 59903 63900.00000 0 -22976141.659 9377791.669 6030766.016 10 0 59903 64800.00000 0 -22107758.227 9031074.388 9064271.827 10 0 59903 65700.00000 0 -20969427.467 8416379.281 11922428.143 10 0 59903 66600.00000 0 -19615236.742 7511130.708 14550068.733 10 0 59903 67500.00000 0 -18104656.448 6304563.137 16896519.573 10 0 59903 68400.00000 0 -16500043.776 4798421.690 18916555.016 10 0 59903 69300.00000 0 -14864050.502 3007144.235 20571248.612 10 0 59903 70200.00000 0 -13257041.449 957517.466 21828704.371 10 0 59903 71100.00000 0 -11734629.165 -1312179.412 22664656.321 10 0 59903 72000.00000 0 -10345425.358 -3753509.110 23062926.490 10 0 59903 72900.00000 0 -9129100.551 -6309635.504 23015733.640 10 0 59903 73800.00000 0 -8114830.860 -8917437.435 22523847.351 10 0 59903 74700.00000 0 -7320195.352 -11509892.298 21596584.338 10 0 59903 75600.00000 0 -6750569.273 -14018633.746 20251646.224 10 0 59903 76500.00000 0 -6399038.558 -16376580.327 18514800.387 10 0 59903 77400.00000 0 -6246840.033 -18520528.285 16419408.045 10 0 59903 78300.00000 0 -6264310.207 -20393602.546 14005806.357 10 0 59903 79200.00000 0 -6412304.580 -21947464.780 11320553.944 10 0 59903 80100.00000 0 -6644029.601 -23144186.423 8415552.117 10 0 59903 81000.00000 0 -6907211.760 -23957707.622 5347056.704 10 0 59903 81900.00000 0 -7146513.406 -24374819.498 2174598.045 10 0 59903 82800.00000 0 -7306093.677 -24395626.502 -1040170.774 10 0 59903 83700.00000 0 -7332205.841 -24033467.251 -4234675.342 10 0 59903 84600.00000 0 -7175719.793 -23314295.047 -7346647.214 10 0 59903 85500.00000 0 -6794460.854 -22275542.386 -10315351.978 10 0 59904 0.00000 0 -6155263.148 -20964516.244 -13082792.427 10 0 59904 900.00000 0 -5235647.110 -19436390.520 -15594862.844 10 0 59904 1800.00000 0 -4025047.857 -17751882.361 -17802426.086 10 0 59904 2700.00000 0 -2525538.210 -15974708.828 -19662295.374 10 0 59904 3600.00000 0 -752013.947 -14168934.184 -21138095.973 10 0 59904 4500.00000 0 1268168.934 -12396320.584 -22200989.913 10 0 59904 5400.00000 0 3496091.046 -10713795.458 -22830248.247 10 0 59904 6300.00000 0 5882663.585 -9171143.592 -23013659.041 10 0 59904 7200.00000 0 8370460.838 -7809022.012 -22747762.943 10 0 59904 8100.00000 0 10895913.877 -6657381.395 -22037912.067 10 0 59904 9000.00000 0 13391772.652 -5734359.960 -20898151.724 10 0 59904 9900.00000 0 15789732.222 -5045695.154 -19350928.378 10 0 59904 10800.00000 0 18023112.293 -4584675.892 -17426630.851 10 0 59904 11700.00000 0 20029477.227 -4332634.819 -15162975.234 10 0 59904 12600.00000 0 21753086.593 -4259956.952 -12604247.171 10 0 59904 13500.00000 0 23147074.119 -4327559.040 -9800417.950 10 0 59904 14400.00000 0 24175264.825 -4488774.250 -6806153.191 10 0 59904 15300.00000 0 24813555.882 -4691559.935 -3679734.967 10 0 59904 16200.00000 0 25050805.585 -4880933.096 -481919.513 10 0 59904 17100.00000 0 24889195.749 -5001529.170 2725246.474 10 0 59904 18000.00000 0 24344055.101 -5000175.345 5879627.378 10 0 59904 18900.00000 0 23443153.701 -4828369.738 8920194.861 10 0 59904 19800.00000 0 22225500.276 -4444562.423 11788196.103 10 0 59904 20700.00000 0 20739694.518 -3816143.308 14428272.419 10 0 59904 21600.00000 0 19041904.303 -2921054.430 16789508.220 10 0 59904 22500.00000 0 17193552.492 -1748960.198 18826391.909 10 0 59904 23400.00000 0 15258809.236 -301927.508 20499672.195 10 0 59904 24300.00000 0 13301992.950 1405412.357 21777095.484 10 0 59904 25200.00000 0 11384986.192 3346227.013 22634012.144 10 0 59904 26100.00000 0 9564771.703 5482357.315 23053841.596 10 0 59904 27000.00000 0 7891188.669 7765668.106 23028388.498 10 0 59904 27900.00000 0 6405000.226 10139821.690 22558004.492 10 0 59904 28800.00000 0 5136350.842 12542403.159 21651592.272 10 0 59904 29700.00000 0 4103676.491 14907312.453 20326451.101 10 0 59904 30600.00000 0 3313112.541 17167326.872 18607965.259 10 0 59904 31500.00000 0 2758424.268 19256730.142 16529139.452 10 0 59904 32400.00000 0 2421463.753 21113900.798 14129987.845 10 0 59904 33300.00000 0 2273135.334 22683753.343 11456785.959 10 0 59904 34200.00000 0 2274830.703 23919930.622 8561197.607 10 0 59904 35100.00000 0 2380274.799 24786655.289 5499291.614 10 0 59904 36000.00000 0 2537705.990 25260161.463 2330465.792 10 0 59904 36900.00000 0 2692299.181 25329644.513 -883701.880 10 0 59904 37800.00000 0 2788729.426 24997686.719 -4080652.844 10 0 59904 38700.00000 0 2773766.670 24280138.471 -7198074.599 10 0 59904 39600.00000 0 2598790.123 23205457.743 -10175129.357 10 0 59904 40500.00000 0 2222113.416 21813533.891 -12953659.256 10 0 59904 41400.00000 0 1611019.134 20154044.186 -15479342.711 10 0 59904 42300.00000 0 743413.564 18284411.942 -17702777.201 10 0 59904 43200.00000 0 -390971.543 16267452.531 -19580465.316 10 0 59904 44100.00000 0 -1789883.815 14168807.326 -21075682.944 10 0 59904 45000.00000 0 -3438393.412 12054274.916 -22159211.045 10 0 59904 45900.00000 0 -5309282.834 9987153.334 -22809915.619 10 0 59904 46800.00000 0 -7363968.036 8025706.423 -23015163.879 10 0 59904 47700.00000 0 -9553912.360 6220861.899 -22771068.292 10 0 59904 48600.00000 0 -11822473.601 4614238.305 -22082554.065 10 0 59904 49500.00000 0 -14107105.929 3236583.489 -20963249.389 10 0 59904 50400.00000 0 -16341823.174 2106689.262 -19435201.691 10 0 59904 51300.00000 0 -18459819.082 1230826.065 -17528426.706 10 0 59904 52200.00000 0 -20396133.792 602718.935 -15280300.695 10 0 59904 53100.00000 0 -22090254.028 204062.882 -12734809.313 10 0 59904 54000.00000 0 -23488537.975 5552.664 -9941669.431 10 0 59904 54900.00000 0 -24546363.644 -31619.753 -6955342.590 10 0 59904 55800.00000 0 -25229911.700 46133.697 -3833960.846 10 0 59904 56700.00000 0 -25517509.708 187014.653 -638187.071 10 0 59904 57600.00000 0 -25400483.578 336278.718 2569967.252 10 0 59904 58500.00000 0 -24883482.870 438794.379 5728343.250 10 0 59904 59400.00000 0 -23984268.846 441611.914 8775831.629 10 0 59904 60300.00000 0 -22732976.360 296434.055 11653542.751 10 0 59904 61200.00000 0 -21170882.330 -38114.924 14305928.127 10 0 59904 62100.00000 0 -19348733.468 -594516.045 16681833.150 10 0 59904 63000.00000 0 -17324703.503 -1394760.049 18735462.639 10 0 59904 63900.00000 0 -15162064.737 -2449195.087 20427242.560 10 0 59904 64800.00000 0 -12926669.718 -3755865.193 21724563.482 10 0 59904 65700.00000 0 -10684345.926 -5300366.931 22602393.476 10 0 59904 66600.00000 0 -8498309.509 -7056230.684 23043750.300 10 0 59904 67500.00000 0 -6426702.897 -8985811.968 23040025.012 10 0 59904 68400.00000 0 -4520356.034 -11041657.670 22591151.392 10 0 59904 69300.00000 0 -2820862.013 -13168292.913 21705617.792 10 0 59904 70200.00000 0 -1359045.356 -15304357.218 20400320.412 10 0 59904 71100.00000 0 -153885.571 -17385004.160 18700259.382 10 0 59904 72000.00000 0 788059.440 -19344467.495 16638081.525 10 0 59904 72900.00000 0 1472705.726 -21118689.211 14253476.335 10 0 59904 73800.00000 0 1917968.280 -22647901.614 11592434.300 10 0 59904 74700.00000 0 2152777.168 -23879056.281 8706379.578 10 0 59904 75600.00000 0 2215624.739 -24767998.138 5651191.675 10 0 59904 76500.00000 0 2152703.690 -25281292.474 2486133.443 10 0 59904 77400.00000 0 2015713.574 -25397626.321 -727294.750 10 0 59904 78300.00000 0 1859428.076 -25108722.918 -3926552.740 10 0 59904 79200.00000 0 1739126.392 -24419728.118 -7049286.539 10 0 59904 80100.00000 0 1707998.603 -23349049.823 -10034557.543 10 0 59904 81000.00000 0 1814636.920 -21927654.905 -12824049.539 10 0 59904 81900.00000 0 2100721.581 -20197851.443 -15363228.067 10 0 59904 82800.00000 0 2599002.289 -18211606.545 -17602427.336 10 0 59904 83700.00000 0 3331663.644 -16028470.257 -19497841.494 10 0 59904 84600.00000 0 4309146.599 -13713193.241 -21012398.980 10 0 59904 85500.00000 0 5529478.187 -11333139.428 -22116501.282 10 0 59905 0.00000 0 6978139.628 -8955603.751 -22788610.526 10 0 59905 900.00000 0 8628480.459 -6645147.663 -23015674.004 10 0 59905 1800.00000 0 10442659.771 -4461068.637 -22793376.355 10 0 59905 2700.00000 0 12373077.442 -2455106.232 -22126215.919 10 0 59905 3600.00000 0 14364232.613 -669484.236 -21027403.474 10 0 59905 4500.00000 0 16354930.989 864630.877 -19518586.774 10 0 59905 5400.00000 0 18280746.847 2128191.744 -17629407.511 10 0 59905 6300.00000 0 20076635.227 3114809.785 -15396900.827 10 0 59905 7200.00000 0 21679583.527 3830752.853 -12864750.746 10 0 59905 8100.00000 0 23031190.649 4294404.246 -10082417.723 10 0 59905 9000.00000 0 24080065.361 4535209.358 -7104156.873 10 0 59905 9900.00000 0 24783943.695 4592157.719 -3987947.575 10 0 59905 10800.00000 0 25111437.636 4511867.592 -794356.451 10 0 59905 11700.00000 0 25043343.414 4346356.493 2414643.272 10 0 59905 12600.00000 0 24573456.452 4150593.617 5576872.543 10 0 59905 13500.00000 0 23708861.059 3979938.506 8631144.141 10 0 59905 14400.00000 0 22469684.821 3887574.329 11518434.506 10 0 59905 15300.00000 0 20888329.781 3922043.463 14183008.026 10 0 59905 16200.00000 0 19008213.895 4124988.192 16573473.521 10 0 59905 17100.00000 0 16882075.839 4529190.182 18643754.408 10 0 59905 18000.00000 0 14569913.732 5156989.644 20353955.806 10 0 59905 18900.00000 0 12136642.601 6019149.287 21671114.053 10 0 59905 19800.00000 0 9649566.221 7114209.864 22569816.209 10 0 59905 20700.00000 0 7175766.180 8428364.134 23032679.301 10 0 59905 21600.00000 0 4779513.824 9935855.182 23050681.336 10 0 59905 22500.00000 0 2519809.726 11599883.934 22623338.349 10 0 59905 23400.00000 0 448150.272 13373990.163 21758724.004 10 0 59905 24300.00000 0 -1393388.109 15203852.121 20473330.629 10 0 59905 25200.00000 0 -2973669.051 17029432.770 18791772.928 10 0 59905 26100.00000 0 -4273558.196 18787386.042 16746338.152 10 0 59905 27000.00000 0 -5286482.862 20413625.315 14376389.081 10 0 59905 27900.00000 0 -6018465.491 21845948.892 11727628.834 10 0 59905 28800.00000 0 -6487628.340 23026613.765 8851239.362 10 0 59905 29700.00000 0 -6723188.859 23904750.169 5802908.148 10 0 59905 30600.00000 0 -6763986.581 24438514.890 2641760.275 10 0 59905 31500.00000 0 -6656602.427 24596891.253 -570784.347 10 0 59905 32400.00000 0 -6453149.118 24361057.809 -3772206.784 10 0 59905 33300.00000 0 -6208826.098 23725265.316 -6900114.317 10 0 59905 34200.00000 0 -5979343.111 22697182.196 -9893470.158 10 0 59905 35100.00000 0 -5818323.038 21297691.149 -12693802.186 10 0 59905 36000.00000 0 -5774796.077 19560143.161 -15246365.264 10 0 59905 36900.00000 0 -5890894.009 17529098.636 -17501232.290 10 0 59905 37800.00000 0 -6199844.936 15258607.679 -19414290.660 10 0 59905 38700.00000 0 -6724356.172 12810101.594 -20948122.792 10 0 59905 39600.00000 0 -7475456.129 10249984.719 -22072751.881 10 0 59905 40500.00000 0 -8451846.161 7647028.595 -22766237.175 10 0 59905 41400.00000 0 -9639791.145 5069678.934 -23015106.452 10 0 59905 42300.00000 0 -11013554.081 2583389.558 -22814616.986 10 0 59905 43200.00000 0 -12536356.422 248095.854 -22168840.213 10 0 59905 44100.00000 0 -14161823.115 -1884066.017 -21090569.045 10 0 59905 45000.00000 0 -15835850.400 -3770698.788 -19601050.703 10 0 59905 45900.00000 0 -17498816.467 -5380662.433 -17729551.570 10 0 59905 46800.00000 0 -19088040.527 -6695109.364 -15512764.023 10 0 59905 47700.00000 0 -20540385.510 -7707995.476 -12994068.506 10 0 59905 48600.00000 0 -21794893.956 -8426048.747 -10222666.864 10 0 59905 49500.00000 0 -22795345.707 -8868200.138 -7252605.424 10 0 59905 50400.00000 0 -23492629.825 -9064504.283 -4141708.395 10 0 59905 51300.00000 0 -23846831.672 -9054598.867 -950443.575 10 0 59905 52200.00000 0 -23828948.577 -8885770.614 2259256.725 10 0 59905 53100.00000 0 -23422163.640 -8610711.797 5425195.983 10 0 59905 54000.00000 0 -22622626.084 -8285063.521 8486111.794 10 0 59905 54900.00000 0 -21439707.365 -7964850.108 11382849.424 10 0 59905 55800.00000 0 -19895724.079 -7703912.656 14059488.831 10 0 59905 56700.00000 0 -18025140.612 -7551449.097 16464404.828 10 0 59905 57600.00000 0 -15873285.539 -7549762.932 18551241.779 10 0 59905 58500.00000 0 -13494635.348 -7732313.699 20279786.011 10 0 59905 59400.00000 0 -10950736.163 -8122149.406 21616721.304 10 0 59905 60300.00000 0 -8307848.235 -8730785.407 22536254.961 10 0 59905 61200.00000 0 -5634408.938 -9557575.876 23020604.066 10 0 59905 62100.00000 0 -2998416.786 -10589604.143 23060333.903 10 0 59905 63000.00000 0 -464842.066 -11802097.284 22654542.642 10 0 59905 63900.00000 0 1906831.302 -13159349.157 21810888.717 10 0 59905 64800.00000 0 4064833.282 -14616115.599 20545459.648 10 0 59905 65700.00000 0 5967014.130 -16119426.223 18882483.430 10 0 59905 66600.00000 0 7582351.667 -17610739.940 16853886.113 10 0 59905 67500.00000 0 8891997.231 -19028356.872 14498701.821 10 0 59905 68400.00000 0 9889816.452 -20309988.002 11862344.073 10 0 59905 69300.00000 0 10582401.383 -21395376.490 8995750.123 10 0 59905 70200.00000 0 10988552.192 -22228861.391 5954412.729 10 0 59905 71100.00000 0 11138248.819 -22761775.843 2797316.373 10 0 59905 72000.00000 0 11071154.419 -22954577.586 -414202.393 10 0 59905 72900.00000 0 10834712.747 -22778620.084 -3617648.752 10 0 59905 73800.00000 0 10481919.388 -22217486.918 -6750594.069 10 0 59905 74700.00000 0 10068861.260 -21267830.168 -9751906.046 10 0 59905 75600.00000 0 9652129.555 -19939674.393 -12562959.165 10 0 59905 76500.00000 0 9286217.259 -18256170.554 -15128799.927 10 0 59905 77400.00000 0 9021013.685 -16252808.007 -17399241.982 10 0 59905 78300.00000 0 8899504.594 -13976116.104 -19329867.765 10 0 59905 79200.00000 0 8955777.860 -11481909.162 -20882915.137 10 0 59905 80100.00000 0 9213421.470 -8833148.453 -22028030.088 10 0 59905 81000.00000 0 9684383.591 -6097511.442 -22742869.645 10 0 59905 81900.00000 0 10368344.351 -3344771.080 -23013542.464 10 0 59905 82800.00000 0 11252626.620 -644096.104 -22834878.279 10 0 59905 83700.00000 0 12312649.648 1938613.649 -22210521.142 10 0 59905 84600.00000 0 13512905.885 4343244.745 -21152845.312 10 0 59905 85500.00000 0 14808418.668 6517734.881 -19682696.392 10 0 59906 0.00000 0 16146617.781 8419990.544 -17828964.287 10 0 59906 900.00000 0 17469552.894 10019379.544 -15627996.676 10 0 59906 1800.00000 0 18716348.201 11297735.450 -13122868.721 10 0 59906 2700.00000 0 19825795.833 12249837.972 -10362521.554 10 0 59906 3600.00000 0 20738975.999 12883349.741 -7400790.367 10 0 59906 4500.00000 0 21401793.705 13218216.739 -4295341.657 10 0 59906 5400.00000 0 21767325.249 13285560.940 -1106541.688 10 0 59906 6300.00000 0 21797876.370 13126115.124 2103720.909 10 0 59906 7200.00000 0 21466666.715 12788268.499 5273234.929 10 0 59906 8100.00000 0 20759071.329 12325807.624 8340665.478 10 0 59906 9000.00000 0 19673368.795 11795449.046 11246729.205 10 0 59906 9900.00000 0 18220966.307 11254267.937 13935324.002 10 0 59906 10800.00000 0 16426093.609 10757130.565 16354592.825 10 0 59906 11700.00000 0 14324979.417 10354237.443 18457902.910 10 0 59906 12600.00000 0 11964544.907 10088878.802 20204723.469 10 0 59906 13500.00000 0 9400668.079 9995494.833 21561387.161 10 0 59906 14400.00000 0 6696089.780 10098120.285 22501722.674 10 0 59906 15300.00000 0 3918046.336 10409277.295 23007547.990 10 0 59906 16200.00000 0 1135724.368 10929361.974 23069016.130 10 0 59906 17100.00000 0 -1582359.683 11646550.511 22684807.446 10 0 59906 18000.00000 0 -4170949.630 12537229.453 21862164.724 10 0 59906 18900.00000 0 -6570504.676 13566933.841 20616769.777 10 0 59906 19800.00000 0 -8729420.134 14691756.162 18972462.495 10 0 59906 20700.00000 0 -10605923.112 15860169.740 16960805.887 10 0 59906 21600.00000 0 -12169565.275 17015192.936 14620503.198 10 0 59906 22500.00000 0 -13402250.626 18096805.881 11996675.824 10 0 59906 23400.00000 0 -14298754.722 19044520.235 9140013.606 10 0 59906 24300.00000 0 -14866712.506 19799995.156 6105811.752 10 0 59906 25200.00000 0 -15126073.772 20309589.656 2952911.280 10 0 59906 26100.00000 0 -15108047.607 20526743.047 -257437.453 10 0 59906 27000.00000 0 -14853578.953 20414081.451 -3462766.522 10 0 59906 27900.00000 0 -14411420.703 19945159.032 -6600614.041 10 0 59906 28800.00000 0 -13835882.488 19105757.489 -9609754.732 10 0 59906 29700.00000 0 -13184351.858 17894685.772 -12431412.023 10 0 59906 30600.00000 0 -12514693.865 16324043.116 -15010426.163 10 0 59906 31500.00000 0 -11882640.911 14418931.576 -17296353.414 10 0 59906 32400.00000 0 -11339285.488 12216627.969 -19244472.808 10 0 59906 33300.00000 0 -10928784.270 9765248.552 -20816678.916 10 0 59906 34200.00000 0 -10686372.974 7121961.925 -21982241.500 10 0 59906 35100.00000 0 -10636777.896 4350825.126 -22718416.027 10 0 59906 36000.00000 0 -10793092.713 1520334.181 -23010892.409 10 0 59906 36900.00000 0 -11156168.843 -1299207.301 -22854072.873 10 0 59906 37800.00000 0 -11714545.208 -4038390.372 -22251173.796 10 0 59906 38700.00000 0 -12444919.829 -6631359.965 -21214150.118 10 0 59906 39600.00000 0 -13313142.170 -9018319.286 -19763444.797 10 0 59906 40500.00000 0 -14275682.772 -11147774.781 -17927569.514 10 0 59906 41400.00000 0 -15281516.284 -12978428.581 -15742526.219 10 0 59906 42300.00000 0 -16274336.496 -14480640.634 -13251082.521 10 0 59906 43200.00000 0 -17195008.141 -15637401.626 -10501916.670 10 0 59906 44100.00000 0 -17984150.547 -16444778.731 -7548650.418 10 0 59906 45000.00000 0 -18584743.166 -16911818.752 -4448790.145 10 0 59906 45900.00000 0 -18944642.683 -17059916.222 -1262598.120 10 0 59906 46800.00000 0 -19018905.810 -16921676.452 1948083.223 10 0 59906 47700.00000 0 -18771820.629 -16539324.386 5121030.547 10 0 59906 48600.00000 0 -18178562.248 -15962728.736 8194839.053 10 0 59906 49500.00000 0 -17226404.575 -15247126.252 11110099.361 10 0 59906 50400.00000 0 -15915438.952 -14450642.750 13810529.853 10 0 59906 51300.00000 0 -14258770.846 -13631715.107 16244044.078 10 0 59906 52200.00000 0 -12282187.308 -12846521.741 18363734.416 10 0 59906 53100.00000 0 -10023309.505 -12146527.980 20128754.985 10 0 59906 54000.00000 0 -7530265.245 -11576247.441 21505088.999 10 0 59906 54900.00000 0 -4859935.557 -11171311.215 22466187.837 10 0 59906 55800.00000 0 -2075846.361 -10956923.911 22993471.247 10 0 59906 56700.00000 0 754209.835 -10946769.761 23076680.433 10 0 59906 57600.00000 0 3560726.578 -11142413.817 22714077.931 10 0 59906 58500.00000 0 6275107.676 -11533223.317 21912490.471 10 0 59906 59400.00000 0 8832257.283 -12096813.361 20687193.345 10 0 59906 60300.00000 0 11173031.108 -12799999.846 19061637.154 10 0 59906 61200.00000 0 13246448.965 -13600221.870 17067020.312 10 0 59906 62100.00000 0 15011578.035 -14447376.437 14741713.264 10 0 59906 63000.00000 0 16439008.905 -15285990.903 12130543.012 10 0 59906 63900.00000 0 17511862.381 -16057643.969 9283949.371 10 0 59906 64800.00000 0 18226284.028 -16703534.891 6257027.081 10 0 59906 65700.00000 0 18591404.258 -17167093.349 3108470.548 10 0 59906 66600.00000 0 18628763.879 -17396519.633 -100559.360 10 0 59906 67500.00000 0 18371227.733 -17347146.707 -3307624.940 10 0 59906 68400.00000 0 17861430.873 -16983522.268 -6450234.304 10 0 59906 69300.00000 0 17149822.113 -16281120.061 -9467072.264 10 0 59906 70200.00000 0 16292387.526 -15227604.967 -12299213.996 10 0 59906 71100.00000 0 15348150.770 -13823595.088 -14891295.986 10 0 59906 72000.00000 0 14376557.228 -12082885.603 -17192619.235 10 0 59906 72900.00000 0 13434854.419 -10032122.253 -19158161.129 10 0 59906 73800.00000 0 12575581.509 -7709936.146 -20749474.299 10 0 59906 74700.00000 0 11844276.225 -5165575.049 -21935453.184 10 0 59906 75600.00000 0 11277497.967 -2457088.075 -22692952.174 10 0 59906 76500.00000 0 10901252.113 350859.998 -23007242.460 10 0 59906 77400.00000 0 10729882.942 3189452.456 -22872298.361 10 0 59906 78300.00000 0 10765482.084 5988358.451 -22290907.770 10 0 59906 79200.00000 0 10997836.907 8678433.575 -21274605.139 10 0 59906 80100.00000 0 11404919.842 11194369.451 -19843429.297 10 0 59906 81000.00000 0 11953896.220 13477181.265 -18025512.101 10 0 59906 81900.00000 0 12602605.991 15476429.497 -15856507.415 10 0 59906 82800.00000 0 13301454.501 17152083.778 -13378873.189 10 0 59906 83700.00000 0 13995630.265 18475952.566 -10641022.329 10 0 59906 84600.00000 0 14627554.164 19432621.143 -7696360.486 10 0 59906 85500.00000 0 15139455.101 20019861.410 -4602231.131 99